This is the latest recevied weather packets stored in our database for station/object K0CVS. If no packets are shown the sender has not sent any weather packets the latest 10 day(s).
| Time | Temp. | Humidity | Pressure | Rain* | Wind** | Luminosity | Snow |
|---|---|---|---|---|---|---|---|
| 1778082920 | 12.78° C | 41% | 1019.2 hPa | 0 mm | - | 240 W/m² | - |
| 1778081812 | 12.22° C | 39% | 1019.2 hPa | 0 mm | - | 196 W/m² | - |
| 1778081509 | 12.78° C | 41% | 1019 hPa | 0 mm | - | 173 W/m² | - |
| 1778081205 | 12.22° C | 41% | 1019 hPa | 0 mm | - | 101 W/m² | - |
| 1778080903 | 12.22° C | 44% | 1018.9 hPa | 0 mm | - | 92 W/m² | - |
| 1778080602 | 12.22° C | 47% | 1018.9 hPa | 0 mm | - | 111 W/m² | - |
| 1778080298 | 11.67° C | 47% | 1018.9 hPa | 0 mm | - | 129 W/m² | - |
| 1778079995 | 11.67° C | 49% | 1019 hPa | 0 mm | - | 178 W/m² | - |
| 1778079692 | 11.67° C | 52% | 1018.9 hPa | 0 mm | - | 63 W/m² | - |
| 1778079389 | 11.11° C | 53% | 1019.1 hPa | 0 mm | - | 42 W/m² | - |
| 1778079086 | 11.11° C | 55% | 1019.1 hPa | 0 mm | - | 38 W/m² | - |
| 1778078783 | 11.11° C | 57% | 1019.2 hPa | 0 mm | - | 84 W/m² | - |
| 1778078480 | 11.11° C | 59% | 1019.2 hPa | 0 mm | - | 57 W/m² | - |
| 1778078178 | 10.56° C | 60% | 1018.9 hPa | 0 mm | - | 51 W/m² | - |
| 1778077875 | 10.56° C | 63% | 1018.9 hPa | 0 mm | - | 61 W/m² | - |
| 1778077574 | 10.56° C | 61% | 1018.9 hPa | 0 mm | - | 84 W/m² | - |
| 1778077272 | 10.56° C | 59% | 1018.9 hPa | 0 mm | - | 63 W/m² | - |
| 1778076968 | 10.56° C | 60% | 1019 hPa | 0 mm | - | 67 W/m² | - |
| 1778076667 | 10.56° C | 58% | 1018.8 hPa | 0 mm | - | 70 W/m² | - |
| 1778076364 | 10° C | 59% | 1018.7 hPa | 0 mm | - | 69 W/m² | - |
| 1778076061 | 10° C | 61% | 1018.7 hPa | 0 mm | - | 65 W/m² | - |
| 1778075758 | 10° C | 62% | 1018.6 hPa | 0 mm | - | 57 W/m² | - |
| 1778075454 | 10° C | 62% | 1018.8 hPa | 0 mm | - | 58 W/m² | - |
| 1778075151 | 10° C | 64% | 1018.3 hPa | 0 mm | - | 61 W/m² | - |
| 1778074847 | 10° C | 64% | 1018.3 hPa | 0 mm | - | 95 W/m² | - |
* Rain latest hour (hover to see other rain measurements)
** Current wind speed in m/s (hover to see current wind gust speed)